Regional Weather Roundup
Issued by NWS

Home | Current Version | Previous Version | Graphics & Text | Print | Product List | Glossary On
Versions: 1 2 3 4 5 6 7 8 9 10 11 12 13 14 15 16 17 18 19 20 21 22 23 24 25 26 27 28 29 30 31 32 33 34 35 36 37 38 39 40 41 42 43 44 45 46 47 48 49 50
000
ASUS44 KMEG 010700
RWRTN
TENNESSEE HOURLY STATE WEATHER ROUNDUP
NATIONAL WEATHER SERVICE MEMPHIS TN
200 AM CDT SUN MAY 01 2016

TNZ002-004-019-021-049-052-054-088>092-010800-
WEST TENNESSEE

CITY           SKY/WX    TMP DP  RH WIND       PRES   REMARKS
MEMPHIS INTL   CLEAR     67  64  90 S6        29.85F
NWS MEMPHIS      N/A     64 N/A N/A MISG        N/A
JACKSON        CLEAR     65  64  97 S6        29.86F
DYERSBURG      CLEAR     64  63  94 S3          N/A
$$

TNZ008-025-027-028-033-062-065-066-010800-
NORTH MIDDLE TENNESSEE

CITY           SKY/WX    TMP DP  RH WIND       PRES   REMARKS
NASHVILLE      CLOUDY    64  62  93 S5        29.90F FOG
CLARKSVILLE    FOG       64  63  96 SE3       29.88F VSB 1/4
SMYRNA         CLOUDY    64  64 100 S5        29.91F FOG
CROSSVILLE     CLOUDY    66  61  84 S3        29.97S
$$

TNZ061-075-076-078-094-096-097-010800-
SOUTH MIDDLE TENNESSEE

CITY           SKY/WX    TMP DP  RH WIND       PRES   REMARKS
SHELBYVILLE    MOCLDY    66  66 100 S5        29.93S
$$

TNZ017-018-042-046-047-010800-
NORTHEAST TENNESSEE

CITY           SKY/WX    TMP DP  RH WIND       PRES   REMARKS
TRI CITIES     CLOUDY    61  59  93 CALM      29.99F
$$

TNZ012-013-036-069-073-074-010800-
CENTRAL EAST TENNESSEE

CITY           SKY/WX    TMP DP  RH WIND       PRES   REMARKS
KNOXVILLE      TSTM      63  62  97 NE5       29.94F
OAK RIDGE      CLOUDY    63  61  93 CALM      29.96F
GATLINBURG     CLOUDY    61  61 100 CALM      29.94F VSB 1/2
$$

TNZ083-085-099-010800-
SOUTHEAST TENNESSEE

CITY           SKY/WX    TMP DP  RH WIND       PRES   REMARKS
CHATTANOOGA    PTCLDY    66  63  90 CALM      29.95F
$$

SKY/WX REPORTED AS FAIR MEANS FEW OR NO CLOUDS BELOW
12 THOUSAND FEET.





USA.gov is the U.S. government's official web portal to all federal, state and local government web resources and services.